Regional Weather Roundup
Issued by NWS Cleveland, OH

Home | Current Version | Previous Version | Graphics & Text | Print | Product List | Glossary On
Versions: 1 2 3 4 5 6 7 8 9 10 11 12 13 14 15 16 17 18 19 20 21 22 23 24 25 26 27 28 29 30 31 32 33 34 35 36 37 38 39 40 41 42 43 44 45 46 47 48 49 50
003
ASUS41 KCLE 132202
RWRCLE
OHIO REGIONAL WEATHER ROUNDUP
NATIONAL WEATHER SERVICE CLEVELAND, OH
500 PM EST SAT FEB 13 2016

NOTE: "FAIR" INDICATES FEW OR NO CLOUDS BELOW 12,000 FEET WITH NO
SIGNIFICANT WEATHER AND/OR OBSTRUCTIONS TO VISIBILITY.

OHZ001>008-015>018-024>027-034-035-043-044-132300-
   NORTHWEST OHIO

CITY           SKY/WX    TMP DP  RH WIND       PRES   REMARKS
DEFIANCE       CLOUDY    17   3  54 NW12      30.47R WCI   4
FINDLAY        LGT SNOW  16   8  71 NW8       30.44S WCI   5
TOLEDO EXPRESS CLOUDY    15   5  64 W9        30.45R WCI   3
TOLEDO EXEC    CLOUDY    16   5  62 NW9       30.46S WCI   4
LIMA           PTSUNNY   14   6  70 W16       30.45S WCI  -2
$$

OHZ009>014-019>023-028>033-038-089-132300-
   NORTHEAST OHIO

CITY           SKY/WX    TMP DP  RH WIND       PRES   REMARKS
CLE-HOPKINS    PTCLDY    12   0  58 NW10      30.45S WCI  -1
CLE-LAKEFRONT  CLOUDY    15   4  61 W18G31    30.43R WCI  -2
CUY CO. ARPT   FLURRIES  14   1  57 NW16G25   30.41R WCI  -2
LORAIN-ELYRIA  LGT SNOW  12   5  73 NW7       30.43S WCI   1
ASHTABULA      LGT SNOW   8   0  69 NW12G23   30.39R WCI  -7
AKRON-CANTON   LGT SNOW  10   1  67 NW12      30.38S WCI  -5
WOOSTER        CLOUDY    11  -1  58 W10       30.41R WCI  -3
MANSFIELD      CLOUDY    11   3  70 W8        30.39S WCI  -1
YOUNGSTOWN     LGT SNOW   9   1  70 NW8       30.36R BLWGSNOWWCI  -3
$$

OHZ042-051>053-060>062-070>072-077>081-132300-
  SOUTHWEST OHIO

CITY           SKY/WX    TMP DP  RH WIND       PRES   REMARKS
CINC-COVINGTON MOSUNNY   18   1  47 NW10      30.49S WCI   6
CINC-LUNKEN    MOSUNNY   19   1  45 N10       30.54S WCI   7
HAMILTON       SUNNY     18   1  47 W12       30.53S WCI   5
DAYTON         PTSUNNY   15   2  56 W13       30.48S WCI   1
WRIGHT-PAT AFB CLOUDY    15   0  50 W9        30.49S WCI   3
DAYTON GENERAL MOSUNNY   15  -1  49 NW9       30.48S WCI   3
WILMINGTON     PTSUNNY   14   1  56 NW12      30.47S WCI   0
$$

OHZ036-037-039>041-045>050-054>059-063>069-073>076-082>088-132300-
  CENTRAL AND SOUTHEAST OHIO

CITY           SKY/WX    TMP DP  RH WIND       PRES   REMARKS
COLUMBUS       PTSUNNY   14  -2  49 W14       30.47S WCI  -1
OSU AIRPORT    FLURRIES  14   2  58 W13       30.46S WCI   0
BOLTON FIELD   FLURRIES  12   7  79 NW6       30.48S WCI   3
RICKENBACK AFB NOT AVBL
NEWARK         CLOUDY    15   3  59 W13       30.45R WCI   1
MARION         CLOUDY    14   5  67 NW9       30.44R WCI   2
LANCASTER      PTSUNNY   14  -1  51 W7        30.47S WCI   4
ZANESVILLE     CLOUDY    16   0  49 W15       30.44S WCI   1
NEW PHILLY     MOCLDY    13  32 100 NW10      30.44S WCI   0
$$




USA.gov is the U.S. government's official web portal to all federal, state and local government web resources and services.